Terminal Aerodrome Forecast
Issued by NWS

Home | Current Version | Previous Version | Text Only | Print | Product List | Glossary Off
Versions: 1 2 3 4 5 6 7 8 9 10 11 12 13 14 15 16 17 18 19 20 21 22 23 24 25 26 27 28 29 30 31 32

405
FTUS43 KLOT 170104 AAB
TAFMDW
TAF AMD
KMDW 170104Z 1701/1724 08006KT 3/4SM SHRA BR OVC003
      TEMPO 1701/1702 1/2SM FG OVC002
     FM170200 10007KT 1/2SM SHRA FG OVC003
      TEMPO 1702/1704 10012KT -TSRA OVC003CB
     FM170600 VRB03KT 3/4SM -RADZ BR OVC003
      TEMPO 1706/1710 1/2SM FG
     FM171300 24010KT 2SM -DZ BR OVC003
     FM172000 27008KT 4SM BR VCSH OVC006=

USA.gov is the U.S. government's official web portal to all federal, state and local government web resources and services.